Terminal Aerodrome Forecast
Issued by NWS Boston, MA

Home | Current Version | Previous Version | Text Only | Print | Product List | Glossary On
Versions: 1 2 3 4 5 6 7 8 9 10 11 12 13 14 15 16 17 18 19 20 21 22 23 24 25 26 27 28 29 30 31 32 33 34 35 36 37 38 39 40 41 42 43 44 45
000
FTUS41 KBOX 011413 AAA
TAFBOS
TAF AMD
KBOS 011413Z 0114/0218 13007KT P6SM SCT250
     FM011500 11010KT P6SM SCT050
     FM012100 15007KT P6SM SCT050 BKN200
     FM012300 18006KT P6SM BKN200
     FM020400 21005KT P6SM BKN130
     FM021700 13006KT P6SM -RA BKN050=

USA.gov is the U.S. government's official web portal to all federal, state and local government web resources and services.